AFR73CU LFPG-LIRN

Flight info

Callsign AFR73CU
Flight time N/A
Altitude 37000
Route LANVI DCT SRN DCT ROBAS DCT LOGDI DCT EKDIR DCT LOMED DCT VERUN DCT NIKMA DCT GENGI DCT EVULI DCT ERIKA
Aircraft A320/M-SDE2E3FGIJ1RWY/HB1

Departure

Time 2026-05-06 17:50
Airport Charles de Gaulle International Airport (LFPG)

Arrival

Time N/A
Airport Naples International Airport (LIRN)
Time Latitude Longitude Altitude Speed Heading
2026-05-06 16:32 49.00717 2.58003 355 ft 0 kts 231°
2026-05-06 17:41 49.00730 2.58028 364 ft 4 kts 237°
2026-05-06 17:41 49.00741 2.58064 363 ft 4 kts 262°
2026-05-06 17:41 49.00743 2.58099 359 ft 4 kts 283°
2026-05-06 17:42 49.00731 2.58127 363 ft 4 kts 343°
2026-05-06 17:42 49.00725 2.58130 362 ft 4 kts 356°
2026-05-06 17:42 49.00735 2.58129 363 ft 0 kts 356°
2026-05-06 17:44 49.00754 2.58127 361 ft 8 kts 356°
2026-05-06 17:44 49.00840 2.58115 354 ft 15 kts 354°
2026-05-06 17:44 49.00915 2.58192 357 ft 16 kts 86°
2026-05-06 17:44 49.00923 2.58373 359 ft 18 kts 86°
2026-05-06 17:45 49.00934 2.58576 355 ft 20 kts 85°
2026-05-06 17:45 49.00945 2.58800 354 ft 22 kts 85°
2026-05-06 17:45 49.00974 2.59039 354 ft 23 kts 73°
2026-05-06 17:45 49.00994 2.59273 354 ft 22 kts 85°
2026-05-06 17:46 49.01001 2.59486 354 ft 17 kts 102°
2026-05-06 17:46 49.00902 2.59539 359 ft 15 kts 175°
2026-05-06 17:46 49.00801 2.59552 354 ft 14 kts 176°
2026-05-06 17:46 49.00686 2.59565 354 ft 21 kts 175°
2026-05-06 17:47 49.00540 2.59583 354 ft 20 kts 175°
2026-05-06 17:47 49.00404 2.59600 361 ft 19 kts 175°
2026-05-06 17:47 49.00280 2.59616 361 ft 17 kts 175°
2026-05-06 17:47 49.00167 2.59630 354 ft 16 kts 175°
2026-05-06 17:48 49.00061 2.59642 354 ft 15 kts 175°
2026-05-06 17:48 48.99964 2.59654 356 ft 14 kts 175°
2026-05-06 17:48 48.99874 2.59666 356 ft 12 kts 175°
2026-05-06 17:48 48.99803 2.59628 355 ft 9 kts 252°
2026-05-06 17:49 48.99800 2.59559 358 ft 13 kts 265°
2026-05-06 17:49 48.99771 2.59029 360 ft 88 kts 265°
2026-05-06 17:49 48.99705 2.57785 356 ft 146 kts 266°
2026-05-06 17:49 48.99624 2.56115 797 ft 158 kts 268°
2026-05-06 17:50 48.99531 2.54448 1609 ft 158 kts 269°
2026-05-06 17:50 48.99437 2.52786 2353 ft 158 kts 269°
2026-05-06 17:50 48.99336 2.51121 3034 ft 157 kts 269°
2026-05-06 17:50 48.99247 2.49465 3665 ft 158 kts 270°
2026-05-06 17:51 48.99157 2.47692 4021 ft 179 kts 269°
2026-05-06 17:51 48.99055 2.45690 4317 ft 202 kts 269°
2026-05-06 17:51 48.98937 2.43423 4655 ft 227 kts 268°
2026-05-06 17:51 48.98802 2.40902 5081 ft 251 kts 266°
2026-05-06 17:52 48.98653 2.38200 5715 ft 265 kts 267°
2026-05-06 17:52 48.98493 2.35375 6609 ft 270 kts 266°
2026-05-06 17:52 48.98329 2.32504 7490 ft 274 kts 266°
2026-05-06 17:52 48.98163 2.29598 8405 ft 277 kts 266°
2026-05-06 17:53 48.97902 2.26628 9329 ft 283 kts 257°
2026-05-06 17:53 48.97041 2.23907 10171 ft 291 kts 235°
2026-05-06 17:53 48.95511 2.21723 10546 ft 317 kts 212°
2026-05-06 17:53 48.93372 2.20647 11056 ft 334 kts 186°
2026-05-06 17:54 48.91024 2.21017 11837 ft 339 kts 163°
2026-05-06 17:54 48.88779 2.22125 12686 ft 341 kts 162°
2026-05-06 17:54 48.86510 2.23267 13524 ft 344 kts 162°
2026-05-06 17:54 48.84304 2.24718 14222 ft 350 kts 149°
2026-05-06 17:55 48.82433 2.27057 14897 ft 354 kts 131°
2026-05-06 17:55 48.81061 2.30166 15615 ft 357 kts 115°
2026-05-06 17:55 48.80325 2.33806 16245 ft 362 kts 97°
2026-05-06 17:55 48.80321 2.37640 16879 ft 367 kts 83°
2026-05-06 17:56 48.80597 2.41499 17574 ft 370 kts 83°
2026-05-06 17:56 48.80867 2.45384 18244 ft 373 kts 83°
2026-05-06 17:56 48.81135 2.49341 18808 ft 377 kts 84°
2026-05-06 17:56 48.81388 2.53184 19426 ft 380 kts 84°
2026-05-06 17:57 48.81658 2.57314 20056 ft 383 kts 84°
2026-05-06 17:57 48.81920 2.61351 20655 ft 386 kts 84°
2026-05-06 17:57 48.82184 2.65411 21241 ft 389 kts 84°
2026-05-06 17:57 48.82448 2.69513 21788 ft 393 kts 85°
2026-05-06 17:58 48.82713 2.73653 22365 ft 396 kts 85°
2026-05-06 17:58 48.82981 2.77822 22929 ft 399 kts 85°
2026-05-06 17:58 48.83249 2.82031 23491 ft 402 kts 85°
2026-05-06 17:58 48.83517 2.86271 23983 ft 405 kts 85°
2026-05-06 17:59 48.83788 2.90536 24448 ft 407 kts 85°
2026-05-06 17:59 48.84057 2.94823 24927 ft 409 kts 85°
2026-05-06 17:59 48.84326 2.99136 25395 ft 411 kts 85°
2026-05-06 17:59 48.84806 3.03366 25836 ft 414 kts 76°
2026-05-06 18:00 48.85552 3.07599 26298 ft 416 kts 76°
2026-05-06 18:00 48.86306 3.11844 26753 ft 417 kts 76°
2026-05-06 18:00 48.87060 3.16105 27186 ft 419 kts 76°
2026-05-06 18:00 48.87815 3.20390 27610 ft 421 kts 76°
2026-05-06 18:01 48.88571 3.24693 28027 ft 423 kts 76°
2026-05-06 18:01 48.89327 3.29024 28435 ft 425 kts 76°
2026-05-06 18:01 48.90081 3.33373 28840 ft 427 kts 77°
2026-05-06 18:01 48.90837 3.37744 29227 ft 429 kts 77°
2026-05-06 18:02 48.91595 3.42140 29609 ft 431 kts 77°
2026-05-06 18:02 48.92355 3.46549 29977 ft 432 kts 77°
2026-05-06 18:02 48.93107 3.50978 30278 ft 434 kts 79°
2026-05-06 18:02 48.93555 3.55518 30567 ft 434 kts 88°
2026-05-06 18:03 48.93545 3.60107 30839 ft 435 kts 96°
2026-05-06 18:03 48.93297 3.64698 31098 ft 437 kts 96°
2026-05-06 18:03 48.93048 3.69322 31346 ft 439 kts 96°
2026-05-06 18:03 48.92800 3.73963 31599 ft 442 kts 96°
2026-05-06 18:04 48.92552 3.78621 31914 ft 442 kts 96°
2026-05-06 18:04 48.92303 3.83277 32266 ft 442 kts 95°
2026-05-06 18:04 48.92052 3.87936 32602 ft 442 kts 96°
2026-05-06 18:04 48.91799 3.92591 32935 ft 442 kts 96°
2026-05-06 18:05 48.91542 3.97252 33270 ft 442 kts 96°
2026-05-06 18:05 48.91281 4.01910 33606 ft 443 kts 95°
2026-05-06 18:05 48.91019 4.06575 33934 ft 443 kts 95°
2026-05-06 18:05 48.90752 4.11239 34195 ft 444 kts 96°
2026-05-06 18:06 48.90482 4.15914 34448 ft 444 kts 96°
2026-05-06 18:06 48.90032 4.20551 34688 ft 444 kts 104°
2026-05-06 18:06 48.89101 4.25015 34915 ft 443 kts 114°
2026-05-06 18:06 48.87728 4.29200 35137 ft 443 kts 120°
2026-05-06 18:07 48.86226 4.33289 35362 ft 444 kts 120°
2026-05-06 18:07 48.84724 4.37381 35596 ft 444 kts 120°
2026-05-06 18:07 48.83222 4.41476 35834 ft 444 kts 120°
2026-05-06 18:07 48.81740 4.45518 36057 ft 444 kts 120°
2026-05-06 18:08 48.80216 4.49669 36281 ft 445 kts 120°
2026-05-06 18:08 48.78730 4.53709 36497 ft 445 kts 120°
2026-05-06 18:08 48.77221 4.57808 36708 ft 445 kts 121°
2026-05-06 18:08 48.75706 4.61914 36878 ft 447 kts 121°
2026-05-06 18:09 48.72671 4.70107 36918 ft 445 kts 121°
2026-05-06 18:09 48.69634 4.78271 36919 ft 445 kts 121°
2026-05-06 18:10 48.66595 4.86427 36919 ft 445 kts 121°
2026-05-06 18:10 48.63558 4.94579 36925 ft 445 kts 121°
2026-05-06 18:11 48.61029 5.01347 36921 ft 445 kts 121°
2026-05-06 18:11 48.57459 5.10847 36918 ft 445 kts 121°
2026-05-06 18:12 48.54388 5.18957 36915 ft 445 kts 121°
2026-05-06 18:12 48.51319 5.27029 36894 ft 445 kts 122°
2026-05-06 18:13 48.48244 5.35147 36894 ft 445 kts 122°
2026-05-06 18:13 48.45170 5.43231 36894 ft 444 kts 122°
2026-05-06 18:14 48.42096 5.51302 36896 ft 444 kts 122°
2026-05-06 18:14 48.39010 5.59357 36892 ft 444 kts 122°
2026-05-06 18:15 48.35923 5.67403 36880 ft 444 kts 122°
2026-05-06 18:15 48.32844 5.75373 36882 ft 444 kts 123°
2026-05-06 18:16 48.29012 5.82512 36878 ft 438 kts 141°
2026-05-06 18:16 48.24397 5.88459 36876 ft 438 kts 141°
2026-05-06 18:17 48.19774 5.94416 36877 ft 438 kts 141°
2026-05-06 18:17 48.15147 6.00369 36868 ft 438 kts 142°
2026-05-06 18:18 48.10518 6.06304 36878 ft 438 kts 142°
2026-05-06 18:18 48.05882 6.12231 36883 ft 438 kts 142°
2026-05-06 18:19 48.01242 6.18148 36887 ft 438 kts 142°
2026-05-06 18:19 47.96598 6.24049 36898 ft 439 kts 142°
2026-05-06 18:20 47.92736 6.28956 36894 ft 439 kts 142°
2026-05-06 18:20 47.88084 6.34855 36902 ft 439 kts 142°
2026-05-06 18:21 47.82674 6.41696 36900 ft 439 kts 143°
2026-05-06 18:21 47.78015 6.47563 36893 ft 439 kts 143°
2026-05-06 18:22 47.74111 6.52460 36897 ft 438 kts 143°
2026-05-06 18:22 47.69482 6.58269 36918 ft 438 kts 143°
2026-05-06 18:23 47.64821 6.64098 36923 ft 438 kts 143°
2026-05-06 18:23 47.60153 6.69913 36920 ft 438 kts 143°
2026-05-06 18:24 47.55483 6.75722 36918 ft 438 kts 143°
2026-05-06 18:24 47.50810 6.81524 36923 ft 439 kts 143°
2026-05-06 18:25 47.46134 6.87328 36924 ft 439 kts 143°
2026-05-06 18:25 47.41453 6.93114 36927 ft 439 kts 143°
2026-05-06 18:26 47.36770 6.98894 36922 ft 439 kts 143°
2026-05-06 18:26 47.32082 7.04670 36926 ft 439 kts 143°
2026-05-06 18:27 47.27389 7.10428 36917 ft 439 kts 144°
2026-05-06 18:27 47.22697 7.16173 36918 ft 439 kts 144°
2026-05-06 18:28 47.18003 7.21907 36924 ft 439 kts 144°
2026-05-06 18:28 47.13342 7.27596 36924 ft 439 kts 144°
2026-05-06 18:29 47.08642 7.33315 36925 ft 439 kts 144°
2026-05-06 18:29 47.03940 7.39012 36925 ft 438 kts 144°
2026-05-06 18:30 46.99243 7.44685 36910 ft 438 kts 145°
2026-05-06 18:30 46.94537 7.50358 36925 ft 438 kts 145°
2026-05-06 18:31 46.89834 7.56023 36926 ft 438 kts 145°
2026-05-06 18:31 46.85124 7.61676 36934 ft 438 kts 145°
2026-05-06 18:32 46.80450 7.67287 36939 ft 438 kts 145°
2026-05-06 18:32 46.75745 7.72924 36937 ft 437 kts 145°
2026-05-06 18:33 46.71032 7.78545 36937 ft 437 kts 146°
2026-05-06 18:33 46.66319 7.84152 36929 ft 437 kts 146°
2026-05-06 18:34 46.61608 7.89750 36928 ft 437 kts 146°
2026-05-06 18:34 46.56921 7.95301 36933 ft 438 kts 146°
2026-05-06 18:35 46.52201 8.00883 36935 ft 438 kts 146°
2026-05-06 18:35 46.47476 8.06460 36925 ft 438 kts 146°
2026-05-06 18:36 46.42747 8.12031 36930 ft 437 kts 146°
2026-05-06 18:36 46.38018 8.17574 36943 ft 437 kts 146°
2026-05-06 18:37 46.33291 8.23106 36939 ft 437 kts 146°
2026-05-06 18:37 46.28564 8.28636 36947 ft 437 kts 146°
2026-05-06 18:38 46.23835 8.34149 36922 ft 436 kts 147°
2026-05-06 18:38 46.19107 8.39642 36905 ft 436 kts 147°
2026-05-06 18:39 46.14375 8.45124 36902 ft 436 kts 147°
2026-05-06 18:40 46.07316 8.53300 36889 ft 436 kts 147°
2026-05-06 18:40 46.02589 8.58758 36878 ft 435 kts 147°
2026-05-06 18:41 45.97860 8.64203 36881 ft 435 kts 147°
2026-05-06 18:41 45.93129 8.69643 36886 ft 436 kts 147°
2026-05-06 18:42 45.88390 8.75066 36874 ft 435 kts 148°
2026-05-06 18:42 45.83655 8.80479 36888 ft 435 kts 148°
2026-05-06 18:43 45.78924 8.85885 36883 ft 434 kts 148°
2026-05-06 18:43 45.74196 8.91268 36893 ft 434 kts 148°
2026-05-06 18:44 45.69471 8.96635 36877 ft 434 kts 148°